Theta_e
319 321 321 324 337 346 348 349 348 348 347 347 346 346 344 343 343 344 343 342 342 342 341 341 340 339 339 338 337 337 336 334
317 317 321 330 343 347 348 348 348 347 346 345 345 344 344 343 341 343 344 342 341 341 341 340 340 339 338 338 336 334 332 331
316 319 321 330 344 346 347 348 348 347 346 345 344 342 341 340 340 340 340 339 341 341 341 340 339 337 336 336 335 329 320 316
316 321 323 324 342 345 347 347 348 347 346 345 344 342 341 340 339 338 339 339 340 340 340 339 337 336 333 329 323 319 314 312
316 322 322 325 335 343 346 346 347 346 346 344 343 341 340 339 338 338 339 337 338 340 339 337 335 324 320 317 314 312 310 309
314 320 325 327 328 343 345 346 346 345 344 343 342 340 339 339 338 338 337 337 338 336 332 326 320 316 314 311 309 308 308 308
314 315 323 326 328 336 346 346 346 344 344 342 341 339 339 337 337 337 335 329 325 322 320 318 315 311 308 308 307 307 307 307
312 313 318 325 330 339 345 344 343 342 342 340 340 339 339 337 336 330 323 319 316 315 313 310 309 308 307 307 306 307 307 307
312 312 313 322 330 340 343 343 342 340 339 339 339 339 337 335 334 330 324 320 315 311 309 308 308 307 306 306 305 306 306 304
314 313 315 323 332 338 341 342 340 339 338 340 338 336 333 330 324 322 317 315 310 309 308 308 307 306 305 305 303 302 302 301
314 313 321 330 335 336 338 338 337 337 338 338 336 332 331 326 322 315 314 310 309 308 308 307 306 305 303 302 302 301 301 299
314 315 324 334 335 333 333 333 332 332 334 333 329 324 322 321 316 312 309 308 308 307 306 305 304 303 302 301 301 299 297 296
313 315 326 333 332 329 327 327 327 327 327 323 320 319 317 312 310 308 308 308 307 306 305 303 302 302 300 299 298 296 295 294
313 321 329 330 329 327 324 323 321 322 322 318 314 312 310 309 308 308 307 307 305 304 303 302 300 299 298 296 295 295 294 292
314 323 326 327 328 325 321 319 318 316 314 313 310 309 308 307 307 307 306 305 303 302 300 299 298 297 295 295 294 293 291 291
314 319 324 324 324 323 319 316 313 311 310 309 308 307 307 307 306 305 304 303 301 299 298 297 296 295 294 293 292 291 291 290
313 315 322 324 324 320 317 313 311 310 308 307 306 306 306 305 305 303 302 300 298 297 297 295 294 293 292 291 290 291 290 290
316 315 322 324 324 320 314 313 310 309 307 306 305 305 304 304 303 301 299 298 297 296 294 293 292 292 291 290 289 290 290 290
316 316 320 322 323 320 315 312 309 308 305 304 304 303 303 303 301 299 297 296 295 294 293 292 291 290 289 289 290 289 289 289
Wind_Speed
23 35 32 29 39 42 43 43 42 41 39 36 35 31 32 29 27 28 29 29 29 27 25 23 21 19 19 19 18 16 14 14
20 27 27 35 37 37 39 39 40 39 36 35 35 37 36 32 28 31 28 26 26 26 24 22 21 20 20 18 16 13 11 9
9 11 23 38 40 41 39 42 44 44 39 37 27 30 33 32 28 26 28 27 29 27 25 24 22 20 18 19 15 11 7 4
8 7 21 23 34 39 43 47 49 46 39 34 24 26 23 28 30 28 27 26 28 27 27 23 21 19 19 17 14 12 7 4
7 9 11 26 33 41 43 46 47 44 43 40 39 34 27 24 31 30 25 24 24 25 24 22 22 21 19 15 11 9 7 5
9 10 19 33 33 35 41 43 41 40 45 41 40 30 27 27 30 29 29 25 24 24 24 24 22 19 14 11 8 7 7 3
9 10 22 25 32 31 31 35 35 38 41 39 39 35 35 33 33 32 31 28 27 26 24 21 19 17 12 9 7 6 6 5
8 6 8 16 23 29 31 31 32 37 40 38 38 40 40 38 38 34 36 34 29 26 24 18 15 13 12 9 7 6 5 5
9 10 9 19 26 30 31 32 29 32 34 34 38 37 36 35 39 40 41 40 35 28 23 20 16 12 10 8 6 6 6 5
11 11 9 16 22 28 33 32 30 32 32 36 36 35 34 34 34 38 39 38 33 29 24 20 16 13 9 8 6 7 5 5
11 11 9 21 26 26 28 31 34 34 36 37 36 36 36 36 38 38 37 34 33 28 23 19 15 12 10 8 7 6 4 6
12 10 10 18 24 29 32 32 33 35 40 39 38 37 37 38 38 38 38 35 29 25 21 17 15 13 10 9 7 5 5 4
8 8 8 15 22 24 29 29 31 35 35 35 35 37 37 38 41 43 39 35 30 25 21 18 15 12 10 7 6 5 4 3
6 2 9 12 16 21 24 28 29 34 36 36 35 36 38 40 41 39 36 32 26 21 19 16 13 10 8 6 7 6 4 4
5 5 7 8 15 19 23 28 35 36 36 36 36 36 37 40 41 36 30 27 24 20 16 15 12 10 9 8 7 5 4 3
8 9 8 7 12 18 19 22 26 31 33 34 35 38 41 42 38 33 28 24 21 19 18 14 12 12 11 10 7 7 3 0
7 8 9 12 13 22 25 27 31 36 32 31 36 42 42 39 35 31 27 24 21 18 15 15 15 13 12 8 7 4 2 1
17 9 12 14 21 26 28 34 34 34 32 35 37 40 41 38 35 31 27 25 22 18 17 17 16 13 11 9 6 3 2 1
19 18 13 21 27 28 25 29 32 32 32 36 38 42 42 39 35 32 28 25 22 20 19 17 15 12 10 7 5 4 4 1
Wind_Direction
265 267 261 214 196 192 190 191 194 193 197 199 200 201 202 202 208 212 213 213 215 221 222 220 219 217 216 221 225 224 231 244
261 265 240 196 183 181 184 184 189 187 189 189 195 199 198 202 208 211 206 210 214 215 214 212 206 213 214 213 213 217 223 242
250 235 201 182 180 184 182 187 188 190 191 193 193 194 199 201 202 210 215 220 217 213 212 208 209 209 209 209 209 194 196 227
235 188 193 191 179 183 186 188 192 189 187 185 185 187 190 196 198 203 204 211 211 213 210 209 202 204 198 190 198 209 199 203
216 202 188 205 196 189 188 188 190 187 184 181 182 180 180 195 188 199 199 204 206 203 196 198 194 184 185 193 202 222 228 220
224 202 200 206 205 190 190 189 187 184 185 183 180 181 185 182 183 191 194 197 199 189 185 181 179 182 187 200 207 214 243 250
262 221 215 211 208 195 189 185 184 183 182 184 183 180 177 171 178 186 181 178 175 179 182 186 191 193 193 200 205 223 229 252
270 273 217 220 202 187 183 181 181 182 182 183 184 186 185 180 181 178 169 171 174 176 181 180 185 188 189 196 196 235 242 230
245 256 226 215 204 185 178 178 178 178 178 178 186 190 187 186 185 182 176 179 181 176 179 178 183 188 192 208 202 224 238 251
246 249 241 206 195 187 177 178 177 176 173 185 190 191 190 185 179 177 177 177 171 172 176 178 182 188 191 202 209 219 236 267
257 255 209 189 182 178 171 172 175 177 184 192 192 191 192 188 184 176 174 169 169 171 174 177 175 186 189 200 198 216 255 272
246 237 213 186 174 171 174 173 171 176 183 187 187 184 186 184 176 171 169 168 169 171 174 175 182 186 186 194 204 235 254 258
273 208 168 173 176 171 173 172 171 177 178 178 178 179 180 170 165 169 167 170 175 178 179 177 179 181 189 197 199 205 205 249
317 236 193 174 181 175 171 170 171 173 175 173 170 167 165 163 165 167 168 169 167 168 172 174 175 180 188 188 185 187 204 246
242 223 224 186 181 180 174 171 174 171 169 166 163 162 161 160 166 167 167 166 162 165 170 171 175 177 175 177 184 205 213 246
218 220 209 192 169 174 174 173 167 164 161 160 160 160 164 166 166 166 164 163 165 168 166 167 170 175 175 178 198 200 178 33
243 228 193 191 186 182 175 170 169 168 162 157 156 160 164 164 161 160 160 160 162 165 167 169 168 174 173 176 189 182 133 39
257 212 198 197 193 183 181 177 170 164 157 154 156 158 160 162 161 160 160 162 165 168 171 172 172 174 176 167 164 152 131 58
254 251 216 206 194 190 178 169 166 160 154 155 156 160 162 161 163 163 162 166 168 168 172 175 173 168 164 161 132 136 116 58